Location: Astroquest
(35.1187°N, 89.7105°W)
Time: 23:39:34
(UTC-06:00)

Tiangong 2 - Visible Passes

Search period start: 18 February 2018 00:00
Search period end: 28 February 2018 00:00
Orbit: 384 x 388 km, 42.8° (Epoch: 18 February)

Date Brightness Start Highest point End Pass type
(mag) Time Alt. Az. Time Alt. Az. Time Alt. Az.
18 Feb 2.7 19:19:15 10° NW 19:21:24 27° N 19:21:24 27° N visible
19 Feb 2.7 18:20:22 10° NW 18:23:00 23° N 18:25:22 11° ENE visible
19 Feb 4.1 19:56:55 10° WNW 19:57:39 16° WNW 19:57:39 16° WNW visible
20 Feb 1.5 18:58:01 10° NW 19:01:06 45° NNE 19:01:41 40° NE visible
21 Feb 2.5 19:35:50 10° WNW 19:38:05 37° W 19:38:05 37° W visible
22 Feb 1.0 18:36:49 10° WNW 18:40:00 83° NNE 18:42:19 17° ESE visible
23 Feb 3.1 19:14:58 10° W 19:17:37 24° SW 19:18:58 18° S visible
24 Feb 2.0 18:15:40 10° WNW 18:18:45 48° SSW 18:21:49 10° SE visible
25 Feb 4.1 18:54:48 10° WSW 18:56:13 12° SW 18:57:36 10° SSW visible
